This is the latest recevied weather packets stored in our database for station/object JR4VEV-13. If no packets are shown the sender has not sent any weather packets the latest 10 day(s).
| Time | Temp. | Humidity | Pressure | Rain* | Wind** | Luminosity | Snow |
|---|---|---|---|---|---|---|---|
| 1777899757 | 10.56° C | 89% | 1017.8 hPa | 0 mm | - | - | - |
| 1777899157 | 10.56° C | 89% | 1017.9 hPa | 0 mm | - | - | - |
| 1777898556 | 10.56° C | 88% | 1017.8 hPa | 0 mm | - | - | - |
| 1777897956 | 10.56° C | 88% | 1017.6 hPa | 0 mm | - | - | - |
| 1777897356 | 10.56° C | 88% | 1017.4 hPa | 0 mm | - | - | - |
| 1777896756 | 10.56° C | 89% | 1017.3 hPa | 0 mm | - | - | - |
| 1777896156 | 10.56° C | 89% | 1017 hPa | 0 mm | - | - | - |
| 1777895555 | 10.56° C | 89% | 1016.8 hPa | 0 mm | - | - | - |
| 1777894955 | 11.11° C | 89% | 1016.8 hPa | 0 mm | - | - | - |
| 1777894355 | 11.11° C | 88% | 1016.6 hPa | 0 mm | - | - | - |
| 1777893755 | 11.11° C | 88% | 1016.4 hPa | 0 mm | - | - | - |
| 1777893155 | 11.11° C | 88% | 1016 hPa | 0 mm | - | - | - |
| 1777892556 | 11.67° C | 88% | 1016 hPa | 0 mm | - | - | - |
| 1777891956 | 11.67° C | 87% | 1015.7 hPa | 0 mm | - | - | - |
| 1777891355 | 12.22° C | 86% | 1015.6 hPa | 0 mm | - | - | - |
| 1777890755 | 12.22° C | 85% | 1015.2 hPa | 0 mm | - | - | - |
| 1777890154 | 12.78° C | 83% | 1014.9 hPa | 0 mm | - | - | - |
| 1777889555 | 12.78° C | 83% | 1014.7 hPa | 0 mm | - | - | - |
| 1777888954 | 13.33° C | 79% | 1014.5 hPa | 0 mm | - | - | - |
| 1777888356 | 13.89° C | 77% | 1014.5 hPa | 0 mm | - | - | - |
| 1777887756 | 13.89° C | 76% | 1014.5 hPa | 0 mm | - | - | - |
| 1777887156 | 14.44° C | 76% | 1014.2 hPa | 0 mm | - | - | - |
| 1777886556 | 14.44° C | 77% | 1014.1 hPa | 0 mm | - | - | - |
| 1777885955 | 14.44° C | 80% | 1013.8 hPa | 0 mm | - | - | - |
| 1777885355 | 14.44° C | 80% | 1013.8 hPa | 0 mm | - | - | - |
* Rain latest hour (hover to see other rain measurements)
** Current wind speed in m/s (hover to see current wind gust speed)